Time,TemperatureF,DewpointF,PressureIn,WindDirection,WindDirectionDegrees,WindSpeedMPH,WindSpeedGustMPH,Humidity,HourlyPrecipIn,Conditions,Clouds,dailyrainin,SoftwareType,DateUTC
2013-06-26 00:12:00,71.0,64.0,29.80,West,270,0.0,0.0,78,0.00,,,0.02,,2013-06-26 04:12:00,
2013-06-26 00:22:00,71.0,64.0,29.80,SW,225,0.0,0.0,79,0.00,,,0.02,,2013-06-26 04:22:00,
2013-06-26 00:33:00,71.0,64.0,29.80,SW,225,0.0,0.0,79,0.00,,,0.02,,2013-06-26 04:33:00,
2013-06-26 00:43:00,71.0,65.0,29.81,SW,225,0.0,0.0,80,0.00,,,0.02,,2013-06-26 04:43:00,
2013-06-26 00:53:00,71.0,65.0,29.81,SW,225,0.0,0.0,80,0.00,,,0.02,,2013-06-26 04:53:00,
2013-06-26 01:02:00,70.0,64.0,29.82,SW,225,0.0,0.0,80,0.00,,,0.02,,2013-06-26 05:02:00,
2013-06-26 01:11:00,70.0,64.0,29.82,SW,225,0.0,0.0,80,0.00,,,0.02,,2013-06-26 05:11:00,
2013-06-26 01:22:00,70.0,64.0,29.82,SW,225,0.0,0.0,81,0.00,,,0.02,,2013-06-26 05:22:00,
2013-06-26 01:34:00,70.0,64.0,29.81,SW,225,0.0,0.0,81,0.00,,,0.02,,2013-06-26 05:34:00,
2013-06-26 01:43:00,69.0,63.0,29.81,SW,225,0.0,0.0,82,0.00,,,0.02,,2013-06-26 05:43:00,
2013-06-26 01:52:00,69.0,63.0,29.81,SW,225,0.0,0.0,82,0.00,,,0.02,,2013-06-26 05:52:00,
2013-06-26 02:02:00,69.0,63.0,29.81,SW,225,0.0,0.0,82,0.00,,,0.02,,2013-06-26 06:02:00,
2013-06-26 02:22:00,69.0,63.0,29.81,SW,225,0.0,0.0,82,0.00,,,0.02,,2013-06-26 06:22:00,
2013-06-26 02:34:00,68.0,63.0,29.80,SW,225,0.0,0.0,83,0.00,,,0.02,,2013-06-26 06:34:00,
2013-06-26 02:43:00,68.0,63.0,29.78,SW,225,0.0,0.0,83,0.00,,,0.02,,2013-06-26 06:43:00,
2013-06-26 02:53:00,68.0,63.0,29.78,SW,225,0.0,0.0,83,0.00,,,0.02,,2013-06-26 06:53:00,
2013-06-26 03:01:00,68.0,63.0,29.78,SW,225,0.0,0.0,83,0.00,,,0.02,,2013-06-26 07:01:00,
2013-06-26 03:11:00,68.0,63.0,29.77,SW,225,0.0,0.0,84,0.00,,,0.02,,2013-06-26 07:11:00,
2013-06-26 03:22:00,68.0,63.0,29.77,SW,225,0.0,0.0,84,0.00,,,0.02,,2013-06-26 07:22:00,
2013-06-26 03:43:00,69.0,64.0,29.77,WSW,248,0.0,0.0,84,0.00,,,0.02,,2013-06-26 07:43:00,
2013-06-26 03:53:00,69.0,64.0,29.77,WSW,248,0.0,0.0,84,0.00,,,0.02,,2013-06-26 07:53:00,
2013-06-26 04:01:00,68.0,63.0,29.76,WSW,248,0.0,0.0,84,0.00,,,0.02,,2013-06-26 08:01:00,
2013-06-26 04:22:00,68.0,63.0,29.76,WSW,248,0.0,0.0,85,0.00,,,0.02,,2013-06-26 08:22:00,
2013-06-26 04:33:00,67.0,62.0,29.76,WSW,248,0.0,0.0,85,0.00,,,0.02,,2013-06-26 08:33:00,
2013-06-26 04:42:00,67.0,62.0,29.76,WSW,248,0.0,0.0,85,0.00,,,0.02,,2013-06-26 08:42:00,
2013-06-26 05:01:00,66.0,61.0,29.76,WSW,248,0.0,0.0,85,0.00,,,0.02,,2013-06-26 09:01:00,
2013-06-26 05:22:00,66.0,62.0,29.77,WSW,248,0.0,0.0,86,0.00,,,0.02,,2013-06-26 09:22:00,
2013-06-26 05:43:00,65.0,61.0,29.77,WSW,248,0.0,0.0,86,0.00,,,0.02,,2013-06-26 09:43:00,
2013-06-26 05:53:00,65.0,61.0,29.77,WSW,248,0.0,0.0,86,0.00,,,0.02,,2013-06-26 09:53:00,
2013-06-26 06:01:00,65.0,61.0,29.76,WSW,248,0.0,0.0,87,0.00,,,0.02,,2013-06-26 10:01:00,
2013-06-26 06:12:00,65.0,61.0,29.76,WSW,248,0.0,0.0,87,0.00,,,0.02,,2013-06-26 10:12:00,
2013-06-26 06:22:00,65.0,61.0,29.77,WSW,248,0.0,0.0,87,0.00,,,0.02,,2013-06-26 10:22:00,
2013-06-26 06:43:00,65.0,61.0,29.77,WSW,248,0.0,0.0,87,0.00,,,0.02,,2013-06-26 10:43:00,
2013-06-26 06:53:00,65.0,61.0,29.76,WSW,248,0.0,0.0,87,0.00,,,0.02,,2013-06-26 10:53:00,
2013-06-26 07:02:00,65.0,61.0,29.78,WSW,248,0.0,0.0,87,0.00,,,0.02,,2013-06-26 11:02:00,
2013-06-26 07:12:00,65.0,61.0,29.78,WSW,248,0.0,0.0,87,0.00,,,0.02,,2013-06-26 11:12:00,
2013-06-26 07:22:00,66.0,62.0,29.78,WSW,248,0.0,0.0,87,0.00,,,0.02,,2013-06-26 11:22:00,
2013-06-26 07:44:00,66.0,62.0,29.78,WSW,248,0.0,0.0,88,0.00,,,0.02,,2013-06-26 11:44:00,
2013-06-26 07:52:00,66.0,62.0,29.78,WSW,248,0.0,0.0,88,0.00,,,0.02,,2013-06-26 11:52:00,
2013-06-26 08:12:00,67.0,63.0,29.78,WSW,248,0.0,0.0,88,0.00,,,0.02,,2013-06-26 12:12:00,
2013-06-26 08:22:00,68.0,65.0,29.79,SW,225,0.0,0.0,89,0.00,,,0.02,,2013-06-26 12:22:00,
2013-06-26 08:42:00,73.0,70.0,29.79,SW,225,0.0,0.0,89,0.00,,,0.02,,2013-06-26 12:42:00,
2013-06-26 08:52:00,73.0,70.0,29.79,SW,225,0.0,0.0,89,0.00,,,0.02,,2013-06-26 12:52:00,
2013-06-26 09:22:00,75.0,70.0,29.79,SSW,203,0.0,0.0,85,0.00,,,0.00,,2013-06-26 13:22:00,
2013-06-26 09:34:00,76.0,70.0,29.80,SW,225,0.0,0.0,82,0.00,,,0.00,,2013-06-26 13:34:00,
2013-06-26 09:42:00,76.0,70.0,29.80,SW,225,0.0,0.0,82,0.00,,,0.00,,2013-06-26 13:42:00,
2013-06-26 09:53:00,77.0,71.0,29.80,WSW,248,0.0,0.0,81,0.00,,,0.00,,2013-06-26 13:53:00,
2013-06-26 10:02:00,78.0,71.0,29.80,NW,315,0.0,0.0,79,0.00,,,0.00,,2013-06-26 14:02:00,
2013-06-26 10:24:00,79.0,72.0,29.80,South,180,0.0,0.0,78,0.00,,,0.00,,2013-06-26 14:24:00,
2013-06-26 10:34:00,79.0,71.0,29.80,SW,225,0.0,0.0,76,0.00,,,0.00,,2013-06-26 14:34:00,
2013-06-26 10:42:00,79.0,71.0,29.80,NW,315,0.0,0.0,76,0.00,,,0.00,,2013-06-26 14:42:00,
2013-06-26 10:53:00,79.0,71.0,29.80,NW,315,0.0,0.0,76,0.00,,,0.00,,2013-06-26 14:53:00,
2013-06-26 11:02:00,79.0,71.0,29.80,SW,225,0.0,0.0,76,0.00,,,0.00,,2013-06-26 15:02:00,
2013-06-26 11:11:00,79.0,71.0,29.80,SW,225,0.0,0.0,76,0.00,,,0.00,,2013-06-26 15:11:00,
2013-06-26 11:22:00,81.0,72.0,29.79,South,180,0.0,0.0,74,0.00,,,0.00,,2013-06-26 15:22:00,
2013-06-26 11:34:00,82.0,72.0,29.79,West,270,0.0,0.0,72,0.00,,,0.00,,2013-06-26 15:34:00,
2013-06-26 11:44:00,82.0,72.0,29.80,WSW,248,0.0,0.0,71,0.00,,,0.00,,2013-06-26 15:44:00,
2013-06-26 11:53:00,82.0,72.0,29.80,WSW,248,0.0,0.0,71,0.00,,,0.00,,2013-06-26 15:53:00,
2013-06-26 12:22:00,82.0,71.0,29.80,South,180,0.0,0.0,70,0.00,,,0.00,,2013-06-26 16:22:00,
2013-06-26 12:34:00,84.0,72.0,29.79,WSW,248,0.0,0.0,68,0.00,,,0.00,,2013-06-26 16:34:00,
2013-06-26 12:52:00,84.0,72.0,29.79,West,270,1.0,2.0,68,0.00,,,0.00,,2013-06-26 16:52:00,
2013-06-26 13:11:00,84.0,71.0,29.78,WSW,248,0.0,0.0,65,0.00,,,0.00,,2013-06-26 17:11:00,
2013-06-26 13:23:00,84.0,71.0,29.79,SSE,158,0.0,0.0,65,0.00,,,0.00,,2013-06-26 17:23:00,
2013-06-26 13:43:00,87.0,73.0,29.78,SW,225,0.0,0.0,63,0.00,,,0.00,,2013-06-26 17:43:00,
2013-06-26 13:52:00,87.0,73.0,29.78,SW,225,0.0,0.0,63,0.00,,,0.00,,2013-06-26 17:52:00,
2013-06-26 14:22:00,87.0,72.0,29.78,South,180,0.0,0.0,61,0.00,,,0.00,,2013-06-26 18:22:00,
2013-06-26 14:34:00,87.0,71.0,29.77,ESE,113,0.0,0.0,60,0.00,,,0.00,,2013-06-26 18:34:00,
2013-06-26 14:43:00,87.0,71.0,29.77,SE,135,1.0,0.0,60,0.00,,,0.00,,2013-06-26 18:43:00,
2013-06-26 14:52:00,87.0,71.0,29.77,SE,135,1.0,0.0,60,0.00,,,0.00,,2013-06-26 18:52:00,
2013-06-26 15:22:00,88.0,72.0,29.75,South,180,0.0,0.0,59,0.00,,,0.00,,2013-06-26 19:22:00,
2013-06-26 15:33:00,89.0,72.0,29.75,NNE,23,0.0,0.0,58,0.00,,,0.00,,2013-06-26 19:33:00,
2013-06-26 15:52:00,88.0,71.0,29.74,SSW,203,0.0,0.0,58,0.00,,,0.00,,2013-06-26 19:52:00,
2013-06-26 16:01:00,89.0,71.0,29.74,South,180,0.0,0.0,56,0.00,,,0.00,,2013-06-26 20:01:00,
2013-06-26 16:22:00,89.0,71.0,29.74,South,180,0.0,0.0,56,0.00,,,0.00,,2013-06-26 20:22:00,
2013-06-26 16:34:00,88.0,70.0,29.74,South,180,5.0,5.0,56,0.00,,,0.00,,2013-06-26 20:34:00,
2013-06-26 16:43:00,88.0,71.0,29.74,SSE,158,0.0,0.0,57,0.00,,,0.00,,2013-06-26 20:43:00,
2013-06-26 16:52:00,88.0,71.0,29.74,SSE,158,0.0,0.0,57,0.00,,,0.00,,2013-06-26 20:52:00,
2013-06-26 17:23:00,89.0,71.0,29.73,South,180,0.0,0.0,55,0.00,,,0.00,,2013-06-26 21:23:00,
2013-06-26 17:33:00,89.0,70.0,29.73,SSE,158,0.0,0.0,54,0.00,,,0.00,,2013-06-26 21:33:00,
2013-06-26 17:43:00,89.0,70.0,29.72,SSE,158,1.0,3.0,53,0.00,,,0.00,,2013-06-26 21:43:00,
2013-06-26 17:52:00,89.0,70.0,29.72,SSE,158,1.0,3.0,53,0.00,,,0.00,,2013-06-26 21:52:00,
2013-06-26 18:11:00,88.0,69.0,29.72,WSW,248,0.0,0.0,53,0.00,,,0.00,,2013-06-26 22:11:00,
2013-06-26 18:22:00,89.0,69.0,29.72,South,180,0.0,0.0,52,0.00,,,0.00,,2013-06-26 22:22:00,
2013-06-26 18:43:00,89.0,69.0,29.72,SW,225,0.0,0.0,52,0.00,,,0.00,,2013-06-26 22:43:00,
2013-06-26 18:52:00,89.0,69.0,29.72,SW,225,0.0,0.0,52,0.00,,,0.00,,2013-06-26 22:52:00,
2013-06-26 19:02:00,87.0,68.0,29.72,South,180,0.0,0.0,54,0.00,,,0.00,,2013-06-26 23:02:00,
2013-06-26 19:11:00,87.0,68.0,29.72,South,180,0.0,0.0,54,0.00,,,0.00,,2013-06-26 23:11:00,
2013-06-26 19:22:00,86.0,68.0,29.72,South,180,0.0,0.0,56,0.00,,,0.00,,2013-06-26 23:22:00,
2013-06-26 19:34:00,85.0,68.0,29.71,SSE,158,0.0,0.0,57,0.00,,,0.00,,2013-06-26 23:34:00,
2013-06-26 19:43:00,84.0,68.0,29.71,SSE,158,0.0,0.0,58,0.00,,,0.00,,2013-06-26 23:43:00,
2013-06-26 19:52:00,84.0,68.0,29.71,SSE,158,0.0,0.0,58,0.00,,,0.00,,2013-06-26 23:52:00,
2013-06-26 20:01:00,84.0,68.0,29.71,ESE,113,0.0,0.0,59,0.00,,,0.00,,2013-06-27 00:01:00,
2013-06-26 20:12:00,83.0,68.0,29.70,SSE,158,0.0,0.0,60,0.00,,,0.00,,2013-06-27 00:12:00,
2013-06-26 20:22:00,83.0,68.0,29.70,SSE,158,0.0,0.0,60,0.00,,,0.00,,2013-06-27 00:22:00,
2013-06-26 20:33:00,83.0,68.0,29.70,South,180,0.0,1.0,61,0.00,,,0.00,,2013-06-27 00:33:00,
2013-06-26 20:42:00,83.0,69.0,29.71,SSE,158,0.0,0.0,62,0.00,,,0.00,,2013-06-27 00:42:00,
2013-06-26 20:53:00,83.0,69.0,29.71,SSE,158,0.0,0.0,62,0.00,,,0.00,,2013-06-27 00:53:00,
2013-06-26 21:01:00,83.0,69.0,29.71,SSE,158,0.0,0.0,62,0.00,,,0.00,,2013-06-27 01:01:00,
2013-06-26 21:11:00,82.0,68.0,29.71,South,180,0.0,0.0,63,0.00,,,0.00,,2013-06-27 01:11:00,
2013-06-26 21:21:00,82.0,68.0,29.71,South,180,0.0,0.0,63,0.00,,,0.00,,2013-06-27 01:21:00,
2013-06-26 21:32:00,82.0,68.0,29.71,South,180,0.0,0.0,63,0.00,,,0.00,,2013-06-27 01:32:00,
2013-06-26 21:43:00,80.0,68.0,29.71,SSW,203,0.0,0.0,68,0.00,,,0.00,,2013-06-27 01:43:00,
2013-06-26 21:53:00,80.0,68.0,29.71,SSW,203,0.0,0.0,68,0.00,,,0.00,,2013-06-27 01:53:00,
2013-06-26 22:01:00,80.0,68.0,29.71,SSW,203,0.0,0.0,68,0.00,,,0.00,,2013-06-27 02:01:00,
2013-06-26 22:22:00,79.0,68.0,29.71,SSW,203,0.0,0.0,70,0.00,,,0.00,,2013-06-27 02:22:00,
2013-06-26 22:32:00,79.0,68.0,29.71,SSW,203,0.0,0.0,70,0.00,,,0.00,,2013-06-27 02:32:00,
2013-06-26 22:42:00,79.0,68.0,29.71,SSW,203,0.0,0.0,70,0.00,,,0.00,,2013-06-27 02:42:00,
2013-06-26 23:11:00,77.0,68.0,29.73,SSW,203,0.0,0.0,74,0.00,,,0.00,,2013-06-27 03:11:00,
2013-06-26 23:21:00,77.0,68.0,29.73,SSW,203,0.0,0.0,74,0.00,,,0.00,,2013-06-27 03:21:00,
2013-06-26 23:33:00,77.0,68.0,29.73,SSW,203,0.0,0.0,74,0.00,,,0.00,,2013-06-27 03:33:00,
2013-06-26 23:42:00,77.0,68.0,29.73,SSW,203,0.0,0.0,74,0.00,,,0.00,,2013-06-27 03:42:00,
2013-06-26 23:52:00,77.0,69.0,29.73,SSW,203,0.0,0.0,76,0.00,,,0.00,,2013-06-27 03:52:00,